EW2996 Weather Reports


time (UTC)temp
C
wind
direction
speed
KPH
gust
KPH
rain 1hr
cm
rain 24hr
cm
rain mn
cm
humidity
%
barometer
mb
20260506232031 13 157 1.6 4.8 0.03 0.71 0.71 97 1006.9
20260506231530 13 159 1.6 6.4 0.03 0.71 0.71 97 1006.9
20260506231030 13 156 1.6 6.4 0.00 0.71 0.71 97 1006.9
20260506230529 13 152 1.6 16.1 0.00 0.71 0.71 97 1006.8
20260506230029 13 136 1.6 16.1 0.00 0.71 0.71 97 1006.8
20260506225531 13 164 3.2 11.3 0.00 0.71 0.71 97 1006.8
20260506225029 13 134 3.2 6.4 0.00 0.71 0.71 97 1006.7
20260506224529 13 131 1.6 11.3 0.00 0.71 0.71 97 1006.7
20260506224031 13 142 4.8 11.3 0.03 0.71 0.71 97 1006.7
20260506223528 13 153 3.2 8.0 0.03 0.71 0.71 97 1006.7
20260506223028 13 126 1.6 8.0 0.03 0.71 0.71 97 1006.6
20260506222527 13 157 0.0 8.0 0.05 0.71 0.71 97 1006.6
20260506222032 13 157 3.2 8.0 0.08 0.71 0.71 97 1006.6
20260506221528 13 119 0.0 4.8 0.10 0.71 0.71 97 1006.5
20260506221027 13 155 1.6 8.0 0.10 0.71 0.71 97 1006.6
20260506220527 13 141 1.6 8.0 0.13 0.71 0.71 97 1006.5
20260506220029 13 142 1.6 11.3 0.13 0.71 0.71 97 1006.6
20260506215526 13 118 3.2 9.7 0.13 0.71 0.71 97 1006.6
20260506215026 13 194 3.2 9.7 0.13 0.71 0.71 97 1006.6
20260506214526 13 166 1.6 9.7 0.13 0.71 0.71 97 1006.7
20260506214027 13 146 1.6 9.7 0.13 0.69 0.69 97 1006.6
20260506213525 13 128 1.6 6.4 0.13 0.69 0.69 97 1006.6
20260506213026 13 128 3.2 8.0 0.13 0.69 0.69 97 1006.6
20260506212525 13 150 1.6 8.0 0.10 0.66 0.66 97 1006.5
20260506212025 13 142 1.6 8.0 0.08 0.64 0.64 97 1006.5
20260506211529 13 133 3.2 17.7 0.08 0.61 0.61 97 1006.5
20260506211025 13 152 4.8 17.7 0.08 0.61 0.61 97 1006.5
20260506210526 13 134 3.2 11.3 0.05 0.58 0.58 97 1006.5
20260506210032 13 152 1.6 11.3 0.08 0.58 0.58 97 1006.5
20260506205523 13 157 3.2 11.3 0.08 0.58 0.58 97 1006.6
20260506205024 13 141 3.2 17.7 0.08 0.58 0.58 97 1006.5
20260506204523 13 168 4.8 17.7 0.08 0.58 0.58 97 1006.6
20260506204025 13 161 1.6 6.4 0.05 0.56 0.56 97 1006.6
20260506203522 13 173 3.2 17.7 0.05 0.56 0.56 96 1006.6
20260506203022 13 154 6.4 17.7 0.08 0.56 0.56 96 1006.7
20260506202523 13 138 4.8 11.3 0.10 0.56 0.56 96 1006.6
20260506202022 13 115 4.8 11.3 0.15 0.56 0.56 96 1006.7
20260506201525 13 167 3.2 14.5 0.15 0.53 0.53 96 1006.6
20260506201024 13 152 4.8 14.5 0.18 0.53 0.53 96 1006.7
20260506200521 13 120 6.4 14.5 0.20 0.53 0.53 96 1006.7
20260506200034 13 136 4.8 12.9 0.18 0.51 0.51 96 1006.8
20260506195519 13 212 4.8 17.7 0.20 0.51 0.51 96 1006.8
20260506195019 13 173 6.4 17.7 0.23 0.51 0.51 96 1006.9
20260506194519 13 135 3.2 12.9 0.23 0.51 0.51 96 1007.0
20260506194017 13 109 3.2 8.0 0.25 0.51 0.51 96 1007.0
20260506193517 13 135 3.2 17.7 0.25 0.51 0.51 96 1007.1
20260506193017 13 128 3.2 11.3 0.23 0.48 0.48 96 1007.1
20260506192519 13 144 3.2 16.1 0.20 0.46 0.46 96 1007.1
20260506192017 13 141 3.2 16.1 0.15 0.41 0.41 96 1007.2
20260506191516 13 157 1.6 6.4 0.15 0.38 0.38 95 1007.2
20260506191017 13 164 1.6 6.4 0.13 0.36 0.36 95 1007.2
20260506190517 13 158 3.2 9.7 0.13 0.33 0.33 95 1007.2
20260506190015 13 121 1.6 9.7 0.10 0.30 0.30 95 1007.2
20260506185515 13 88 1.6 12.9 0.10 0.30 0.30 95 1007.2
20260506185013 13 143 3.2 12.9 0.08 0.28 0.28 95 1007.3
20260506184513 13 132 3.2 12.9 0.08 0.28 0.28 95 1007.5
20260506184015 13 297 3.2 6.4 0.05 0.25 0.25 95 1007.6
20260506183514 14 132 0.0 4.8 0.08 0.25 0.25 95 1007.6
20260506183113 14 123 1.6 4.8 0.08 0.25 0.25 95 1007.5
20260506182512 14 163 1.6 12.9 0.08 0.25 0.25 95 1007.6
20260506182012 14 146 1.6 12.9 0.08 0.25 0.25 94 1007.5
20260506181516 14 108 0.0 9.7 0.08 0.23 0.23 94 1007.6
20260506181012 14 128 1.6 11.3 0.08 0.23 0.23 94 1007.7
20260506180512 14 131 1.6 8.0 0.05 0.20 0.20 94 1007.7
20260506180017 14 161 0.0 6.4 0.08 0.20 0.20 94 1007.7
20260506175511 14 146 1.6 4.8 0.10 0.20 0.20 94 1007.6
20260506175010 15 148 1.6 12.9 0.13 0.20 0.20 94 1007.7
20260506174511 15 119 3.2 12.9 0.13 0.20 0.20 94 1007.6
20260506174010 15 173 3.2 8.0 0.15 0.20 0.20 94 1007.6
20260506173510 15 141 1.6 9.7 0.15 0.18 0.18 94 1007.7
20260506173009 15 79 3.2 11.3 0.15 0.18 0.18 94 1007.5
20260506172509 15 105 3.2 6.4 0.15 0.18 0.18 93 1007.7
20260506172007 15 84 0.0 4.8 0.15 0.18 0.18 93 1007.7
20260506171506 15 125 0.0 4.8 0.15 0.15 0.15 93 1008.1
20260506171006 15 76 0.0 4.8 0.15 0.15 0.15 92 1008.1
20260506170506 15 118 0.0 4.8 0.13 0.13 0.15 91 1008.1
20260506170004 15 54 0.0 8.0 0.10 0.10 0.10 91 1008.4
20260506165503 15 138 3.2 8.0 0.10 0.10 0.10 90 1008.8
20260506165003 15 132 1.6 6.4 0.08 0.08 0.08 89 1008.9
20260506164503 16 132 3.2 6.4 0.05 0.05 0.05 89 1008.8
20260506164002 16 121 0.0 12.9 0.05 0.05 0.05 88 1008.9
20260506163503 16 123 3.2 12.9 0.03 0.03 0.03 87 1009.0
20260506163004 16 114 1.6 4.8 0.03 0.03 0.03 87 1009.0
20260506162503 16 176 1.6 4.8 0.03 0.03 0.03 86 1008.7
20260506162002 16 152 1.6 16.1 0.00 0.00 0.00 85 1008.8
20260506161100 16 171 4.8 11.3 0.00 0.00 0.00 83 1008.9
20260506160600 16 115 3.2 12.9 0.00 0.00 0.00 83 1008.8
20260506160112 17 131 3.2 12.9 0.00 0.00 0.00 82 1008.8
20260506155559 17 141 1.6 17.7 0.00 0.00 0.00 81 1008.9
20260506155058 17 171 3.2 17.7 0.00 0.00 0.00 80 1009.0
20260506154557 17 173 1.6 9.7 0.00 0.00 0.00 81 1009.1
20260506154057 16 123 1.6 11.3 0.00 0.00 0.00 81 1009.2
20260506153556 16 159 4.8 17.7 0.00 0.00 0.00 81 1009.3
20260506153100 16 143 6.4 17.7 0.00 0.00 0.00 81 1009.3
20260506152555 16 121 3.2 14.5 0.00 0.00 0.00 81 1009.3
20260506152055 16 137 3.2 22.5 0.00 0.00 0.00 81 1009.3
20260506151554 16 128 4.8 22.5 0.00 0.00 0.00 81 1009.3
20260506151054 16 145 6.4 14.5 0.00 0.00 0.00 81 1009.3
20260506150555 16 114 6.4 14.5 0.00 0.00 0.00 81 1009.4
20260506150053 16 155 4.8 16.1 0.00 0.00 0.00 82 1009.4
20260506145556 16 144 3.2 12.9 0.00 0.00 0.00 83 1009.4
20260506145051 16 138 3.2 12.9 0.00 0.00 0.00 83 1009.4
20260506144550 16 168 4.8 14.5 0.00 0.00 0.00 84 1009.5
20260506144049 16 105 4.8 16.1 0.00 0.00 0.00 84 1009.6
20260506143550 16 196 4.8 16.1 0.00 0.00 0.00 84 1009.6
20260506143049 16 144 3.2 14.5 0.00 0.00 0.00 84 1009.7
20260506142548 15 161 3.2 14.5 0.00 0.00 0.00 85 1009.7
20260506142048 15 135 3.2 14.5 0.00 0.00 0.00 85 1009.7
20260506141605 15 134 4.8 11.3 0.00 0.00 0.00 85 1009.6
20260506141049 15 119 3.2 19.3 0.00 0.00 0.00 86 1009.6
20260506140551 15 142 1.6 19.3 0.00 0.00 0.00 86 1009.6
20260506140048 15 123 4.8 9.7 0.00 0.00 0.00 86 1009.7
20260506135547 15 100 1.6 12.9 0.00 0.00 0.00 86 1009.4
20260506135046 15 99 4.8 14.5 0.00 0.00 0.00 86 1009.4
20260506134546 15 103 4.8 14.5 0.00 0.00 0.00 86 1009.4
20260506134046 15 208 1.6 12.9 0.00 0.00 0.00 86 1009.4
20260506133547 15 112 3.2 11.3 0.00 0.00 0.00 87 1009.4
20260506133046 15 146 3.2 11.3 0.00 0.00 0.00 87 1009.2
20260506132545 15 201 3.2 9.7 0.00 0.00 0.00 87 1009.3
20260506132047 15 165 3.2 9.7 0.00 0.00 0.00 87 1009.2
20260506131544 15 131 3.2 4.8 0.00 0.00 0.00 88 1009.3
20260506131043 15 134 0.0 4.8 0.00 0.00 0.00 88 1009.3
20260506130542 15 164 0.0 4.8 0.00 0.00 0.00 88 1009.4
20260506130041 14 88 1.6 14.5 0.00 0.00 0.00 89 1009.5
20260506125540 14 115 0.0 6.4 0.00 0.00 0.00 89 1009.6
20260506125039 14 169 1.6 6.4 0.00 0.00 0.00 89 1009.6
20260506124541 14 162 0.0 6.4 0.00 0.00 0.00 90 1009.6
20260506124140 14 148 1.6 9.7 0.00 0.00 0.00 90 1009.6
20260506123539 14 99 1.6 9.7 0.00 0.00 0.00 90 1009.5
20260506123043 14 140 3.2 6.4 0.00 0.00 0.00 90 1009.7
20260506122538 13 102 0.0 6.4 0.00 0.00 0.00 91 1009.8
20260506122038 13 114 0.0 6.4 0.00 0.00 0.00 91 1009.9
20260506121538 13 163 0.0 8.0 0.00 0.00 0.00 91 1010.0
20260506121037 13 31 1.6 8.0 0.00 0.00 0.00 92 1010.0
20260506120537 13 132 0.0 6.4 0.00 0.00 0.00 92 1009.9
20260506120104 13 153 0.0 4.8 0.00 0.00 0.00 92 1009.9
20260506115535 13 153 1.6 4.8 0.00 0.00 0.00 93 1009.8
20260506115035 13 143 0.0 3.2 0.00 0.00 0.00 93 1009.8
20260506114533 13 143 0.0 4.8 0.00 0.00 0.00 93 1009.7
20260506114034 13 143 0.0 6.4 0.00 0.00 0.00 93 1009.9
20260506113533 13 134 1.6 6.4 0.00 0.00 0.00 93 1009.9
20260506113034 12 201 0.0 6.4 0.00 0.00 0.00 93 1009.9
20260506112532 12 223 0.0 6.4 0.00 0.00 0.00 93 1009.9
20260506112031 12 120 0.0 4.8 0.00 0.00 0.00 93 1010.1
20260506111531 12 113 0.0 6.4 0.00 0.00 0.00 93 1010.1
20260506111031 12 207 0.0 8.0 0.00 0.00 0.00 93 1010.1
20260506110532 12 129 3.2 8.0 0.00 0.00 0.00 93 1010.1
20260506110031 12 135 1.6 6.4 0.00 0.00 0.00 93 1009.9
20260506105531 12 129 0.0 9.7 0.00 0.00 0.00 93 1009.9
20260506105029 12 150 1.6 9.7 0.00 0.00 0.00 93 1010.0
20260506104531 12 159 1.6 8.0 0.00 0.00 0.00 93 1010.2
20260506104030 12 163 1.6 8.0 0.00 0.00 0.00 93 1010.2
20260506103530 12 180 0.0 6.4 0.00 0.00 0.00 93 1010.0
20260506103031 12 132 1.6 11.3 0.00 0.00 0.00 93 1010.0
20260506102528 12 120 3.2 11.3 0.00 0.00 0.00 93 1010.0
20260506102028 12 142 3.2 8.0 0.00 0.00 0.00 93 1010.1
20260506101527 12 150 0.0 11.3 0.00 0.00 0.00 93 1010.1
20260506101026 12 150 1.6 11.3 0.00 0.00 0.00 93 1010.0
20260506100526 12 164 1.6 8.0 0.00 0.00 0.00 93 1009.8
20260506100025 12 158 1.6 4.8 0.00 0.00 0.00 93 1009.8
20260506095526 12 140 0.0 6.4 0.00 0.00 0.00 92 1009.7
20260506095024 12 157 0.0 6.4 0.00 0.00 0.00 92 1009.7
20260506094532 12 165 0.0 6.4 0.00 0.00 0.00 92 1009.8
20260506094022 12 140 0.0 4.8 0.00 0.00 0.00 91 1009.7
20260506093522 12 173 0.0 3.2 0.00 0.00 0.00 91 1009.7
20260506093039 12 142 0.0 3.2 0.00 0.00 0.00 91 1009.8
20260506092521 12 144 0.0 6.4 0.00 0.00 0.00 91 1009.7
20260506092021 12 144 0.0 6.4 0.00 0.00 0.00 91 1009.7
20260506091523 12 144 1.6 6.4 0.00 0.00 0.00 90 1009.7
20260506091019 12 170 1.6 8.0 0.00 0.00 0.00 90 1009.8
20260506090519 12 153 3.2 6.4 0.00 0.00 0.00 90 1009.7
20260506090017 12 134 0.0 6.4 0.00 0.00 0.00 90 1009.8
20260506085517 12 157 1.6 8.0 0.00 0.00 0.00 89 1009.9
20260506085018 12 132 3.2 8.0 0.00 0.00 0.00 89 1009.8
20260506084516 12 133 1.6 6.4 0.00 0.00 0.00 89 1009.9
20260506084016 12 139 1.6 4.8 0.00 0.00 0.00 89 1009.9
20260506083519 12 160 0.0 4.8 0.00 0.00 0.00 89 1009.9
20260506083016 12 117 1.6 6.4 0.00 0.00 0.00 88 1009.9
20260506082515 12 157 0.0 11.3 0.00 0.00 0.00 88 1009.9
20260506082014 12 164 1.6 6.4 0.00 0.00 0.00 88 1010.0
20260506081516 12 159 0.0 8.0 0.00 0.00 0.00 88 1010.0
20260506081014 12 161 1.6 9.7 0.00 0.00 0.00 88 1010.0
20260506080515 12 128 1.6 6.4 0.00 0.00 0.00 88 1009.9
20260506073514 12 147 0.0 6.4 0.00 0.00 0.00 86 1009.9
20260506073011 12 148 1.6 8.0 0.00 0.00 0.00 86 1010.0
20260506072511 12 111 1.6 6.4 0.00 0.00 0.00 85 1010.0
20260506072011 13 111 0.0 1.6 0.00 0.00 0.00 84 1010.0
20260506071510 13 111 0.0 1.6 0.00 0.00 0.00 84 1010.0
20260506071008 13 111 0.0 1.6 0.00 0.00 0.00 83 1010.0
20260506070509 13 111 0.0 3.2 0.00 0.00 0.00 83 1010.0
20260506062501 14 106 0.0 3.2 0.00 0.00 0.00 80 1010.0
20260506062104 14 105 0.0 3.2 0.00 0.00 0.00 80 1010.0
20260506061603 14 105 0.0 3.2 0.00 0.00 0.00 79 1010.1
20260506061059 14 105 0.0 3.2 0.00 0.00 0.00 79 1010.0
20260506060557 15 105 0.0 3.2 0.00 0.00 0.00 79 1010.1
20260506051050 15 170 1.6 4.8 0.00 0.00 0.00 76 1010.4
20260506050550 15 121 1.6 9.7 0.00 0.00 0.00 76 1010.4
20260506045047 15 136 0.0 8.0 0.00 0.00 0.00 75 1010.4
20260506044556 15 136 0.0 12.9 0.00 0.00 0.00 75 1010.4
20260506044046 15 115 4.8 12.9 0.00 0.00 0.00 75 1010.4
20260506043546 15 127 1.6 6.4 0.00 0.00 0.00 75 1010.5
20260506043048 15 150 3.2 6.4 0.00 0.00 0.00 75 1010.6
20260506042546 15 132 1.6 6.4 0.00 0.00 0.00 75 1010.5
20260506042045 15 112 1.6 9.7 0.00 0.00 0.00 75 1010.4
20260506041552 16 80 0.0 4.8 0.00 0.00 0.00 75 1010.4
20260506041047 16 119 0.0 8.0 0.00 0.00 0.00 74 1010.6
20260506040544 16 173 1.6 8.0 0.00 0.00 0.00 73 1010.6
20260506040044 16 128 1.6 6.4 0.00 0.00 0.00 73 1010.6
20260506035544 16 144 3.2 6.4 0.00 0.00 0.00 73 1010.6
20260506035043 16 142 1.6 6.4 0.00 0.00 0.00 73 1010.6
20260506034544 16 136 3.2 6.4 0.00 0.00 0.00 72 1010.6
20260506034041 16 128 1.6 8.0 0.00 0.00 0.00 72 1010.6
20260506033541 16 133 3.2 11.3 0.00 0.00 0.00 72 1010.7
20260506033041 16 126 3.2 11.3 0.00 0.00 0.00 72 1010.7
20260506032541 16 128 3.2 8.0 0.00 0.00 0.00 72 1010.7
20260506032041 16 149 3.2 8.0 0.00 0.00 0.00 72 1010.7
20260506031554 16 162 1.6 8.0 0.00 0.00 0.00 72 1010.6
20260506031040 16 157 1.6 6.4 0.00 0.00 0.00 71 1010.6
20260506030643 16 167 3.2 12.9 0.00 0.00 0.00 71 1010.7
20260506030055 16 138 1.6 16.1 0.00 0.00 0.00 71 1010.6
20260506025539 16 161 4.8 16.1 0.00 0.00 0.00 71 1010.6
20260506025039 16 167 4.8 14.5 0.00 0.00 0.00 71 1010.6
20260506024539 16 126 3.2 8.0 0.00 0.00 0.00 71 1010.6
20260506024039 16 153 1.6 9.7 0.00 0.00 0.00 71 1010.6
20260506023539 16 127 3.2 8.0 0.00 0.00 0.00 71 1010.6
20260506023039 16 130 1.6 4.8 0.00 0.00 0.00 72 1010.4
20260506022538 16 116 1.6 4.8 0.00 0.00 0.00 73 1010.6
20260506022038 16 114 1.6 4.8 0.00 0.00 0.00 72 1010.4
20260506021538 16 112 1.6 6.4 0.00 0.00 0.00 71 1010.3
20260506021038 16 112 0.0 6.4 0.00 0.00 0.00 70 1010.5
20260506020538 16 146 0.0 4.8 0.00 0.00 0.00 70 1010.5
20260506020037 16 146 1.6 4.8 0.00 0.00 0.00 70 1010.2
20260506015537 17 153 1.6 4.8 0.00 0.00 0.00 70 1010.3
20260506015037 17 153 0.0 4.8 0.00 0.00 0.00 70 1010.3
20260506014537 17 153 1.6 4.8 0.00 0.00 0.00 70 1010.4
20260506014038 17 153 0.0 4.8 0.00 0.00 0.00 70 1010.3
20260506013536 17 143 1.6 4.8 0.00 0.00 0.00 70 1010.4
20260506013041 17 157 1.6 4.8 0.00 0.00 0.00 70 1010.4
20260506012536 17 157 1.6 9.7 0.00 0.00 0.00 69 1010.3
20260506012035 17 166 1.6 11.3 0.00 0.00 0.00 69 1010.3
20260506011536 17 111 1.6 4.8 0.00 0.00 0.00 69 1010.2
20260506011036 17 144 1.6 4.8 0.00 0.00 0.00 69 1010.2
20260506010536 17 144 1.6 4.8 0.00 0.00 0.00 69 1010.1
20260506010036 17 132 0.0 4.8 0.00 0.00 0.00 69 1010.1
20260506005535 17 132 1.6 4.8 0.00 0.00 0.00 67 1010.0
20260506005036 17 185 1.6 8.0 0.00 0.00 0.00 67 1009.9
20260506004604 17 132 1.6 8.0 0.00 0.00 0.00 67 1009.9
20260506004034 17 128 1.6 6.4 0.00 0.00 0.00 66 1009.8
20260506003534 17 128 3.2 12.9 0.00 0.00 0.00 66 1009.8
20260506003034 18 182 3.2 12.9 0.00 0.00 0.00 66 1009.7
20260506002534 18 130 3.2 6.4 0.00 0.00 0.00 65 1009.7
20260506002041 18 140 1.6 6.4 0.00 0.00 0.00 65 1009.5
20260506001634 18 200 1.6 11.3 0.00 0.00 0.00 64 1009.5
20260506001034 18 179 1.6 12.9 0.00 0.00 0.00 64 1009.4
20260506000532 18 130 3.2 14.5 0.00 0.00 0.00 63 1009.4
20260506000034 18 153 3.2 14.5 0.00 0.00 0.00 64 1009.3
20260505235532 18 165 1.6 14.5 0.00 0.00 0.00 64 1009.2
20260505235032 18 167 3.2 14.5 0.00 0.00 0.00 63 1009.1
20260505234602 18 159 1.6 6.4 0.00 0.00 0.00 64 1009.0
20260505234032 18 132 1.6 14.5 0.00 0.00 0.00 63 1008.9
20260505233532 19 150 3.2 8.0 0.00 0.00 0.00 62 1008.9
20260505233032 19 128 1.6 12.9 0.00 0.00 0.00 63 1008.8
20260505232531 19 103 3.2 12.9 0.00 0.00 0.00 63 1008.8